Wind_Speed
4 5 5 4 4 4 5 5 5 5 5 4 4 4 3 3 3 3 3 4 4 4 3 4 5 5 4 4 3 2 2 2 2 2 2 2 2 2 2 2 2 1 1 2 2 2 3 3 3
5 5 6 5 3 5 6 6 6 6 5 5 5 4 4 4 3 3 4 4 4 4 3 4 5 5 5 4 4 3 3 3 2 2 2 2 2 3 2 2 2 2 2 3 2 2 3 3 4
7 7 7 6 5 5 7 7 7 6 6 5 5 5 4 5 4 4 5 5 5 5 4 5 5 5 5 5 5 4 3 3 3 3 3 3 3 3 2 2 3 3 3 3 2 2 3 3 4
8 8 8 7 8 7 7 7 7 7 6 6 6 6 6 5 5 5 6 6 6 6 5 6 6 6 6 5 5 5 4 3 4 4 4 4 3 3 3 3 3 4 3 3 3 3 2 3 4
9 9 8 8 9 8 8 8 8 8 7 7 7 7 7 6 6 7 6 6 6 6 6 6 6 6 6 6 6 6 5 4 4 4 4 4 4 4 4 4 4 4 4 3 3 3 3 2 3
10 10 9 10 10 10 9 9 9 8 8 8 7 7 7 7 7 8 7 6 6 6 6 6 6 6 6 7 7 7 7 5 5 5 5 4 4 5 4 4 4 4 4 5 3 3 3 4 3
11 11 11 11 11 11 10 10 9 9 9 9 8 8 8 8 9 8 8 7 6 6 6 6 6 6 7 7 7 7 8 7 5 5 5 5 5 5 5 5 5 5 4 4 4 4 4 4 4
13 12 12 13 12 12 11 11 10 10 9 9 9 9 9 9 9 9 8 8 6 6 6 7 7 7 8 8 8 8 8 7 7 6 6 6 6 6 5 5 5 5 4 4 5 5 5 5 5
14 13 13 14 14 13 12 12 12 10 10 10 9 9 10 10 10 8 8 7 7 7 7 8 8 8 8 9 9 9 8 8 7 7 7 7 7 7 6 5 5 5 5 5 6 6 5 5 5
15 14 14 15 15 14 14 13 12 11 11 11 11 11 11 11 11 9 9 8 8 8 7 7 8 9 9 9 9 9 8 9 8 8 8 8 8 8 7 7 7 7 7 7 7 7 6 6 6
15 15 16 15 15 15 15 14 14 13 12 13 13 12 11 11 10 10 10 9 9 8 7 7 8 9 9 10 10 10 10 10 10 10 9 9 9 9 9 9 8 8 8 8 8 8 7 7 7
16 16 16 16 16 16 16 15 15 14 13 14 14 13 12 11 11 11 10 10 9 8 8 8 8 8 9 9 9 10 10 10 10 11 10 11 10 10 10 10 8 9 9 9 9 9 8 8 8
17 16 16 16 16 16 16 16 16 15 15 14 14 14 14 12 12 12 12 11 10 9 9 9 9 9 9 9 9 10 11 11 10 11 12 12 12 12 11 11 10 10 9 10 10 9 9 10 10
17 16 16 16 16 17 16 16 16 16 16 15 15 15 14 14 13 12 12 12 11 11 10 10 10 10 9 9 10 11 11 12 11 11 12 13 12 12 13 12 11 10 10 11 10 10 10 10 11
17 17 16 17 17 17 17 17 17 17 17 16 16 16 14 14 14 14 13 12 12 12 11 12 11 11 10 10 11 11 11 12 13 12 13 13 13 14 14 14 12 11 11 11 11 12 11 11 11
17 16 17 17 18 18 19 18 18 18 18 17 17 16 14 14 15 15 15 13 12 12 12 12 11 11 11 11 12 12 12 12 13 13 13 14 14 15 15 14 12 12 12 12 12 12 12 12 13
17 17 17 18 19 19 19 19 18 18 19 18 17 17 16 15 15 16 15 14 14 14 13 13 12 12 12 12 13 13 13 14 14 14 14 14 15 15 15 15 13 12 13 13 13 13 13 13 13
18 18 18 19 19 20 20 18 18 18 19 19 18 17 17 17 16 16 15 15 15 15 14 14 14 13 13 13 14 14 14 15 14 14 15 14 14 15 15 14 13 13 13 14 14 14 14 14 14
20 20 19 19 19 20 19 18 18 19 19 19 18 17 17 16 16 16 16 16 15 15 15 15 15 15 15 14 14 14 15 15 15 15 15 16 15 15 15 14 13 13 14 14 14 14 14 14 15
21 21 20 20 20 21 20 19 19 20 20 19 18 18 17 17 17 16 16 16 15 15 16 16 16 16 16 16 16 15 16 16 15 15 15 16 16 16 16 15 15 15 15 15 15 15 15 15 15
21 21 21 20 20 21 21 20 19 20 21 21 20 19 19 18 17 17 17 17 17 17 17 17 17 17 17 17 17 17 17 17 17 17 17 17 17 17 16 16 16 15 15 15 15 15 15 16 16
21 21 21 21 21 20 21 20 20 20 20 20 20 20 19 18 17 17 18 18 18 18 19 19 18 18 19 19 19 18 18 18 18 18 18 18 17 16 15 16 16 16 15 15 15 15 16 16 16
21 21 21 20 21 20 21 21 19 20 20 20 20 20 20 19 19 18 18 19 19 20 20 20 19 20 20 19 19 19 19 18 18 19 19 18 16 16 15 15 16 16 16 16 16 16 16 16 17
20 20 20 20 21 21 21 21 19 20 20 19 20 20 20 20 20 19 19 20 20 20 20 20 20 20 20 20 20 19 20 20 20 19 18 17 17 16 16 16 15 16 17 17 17 17 17 17 17
20 19 19 19 21 21 21 21 20 19 19 19 20 20 20 20 20 20 20 20 20 20 20 20 19 20 20 20 20 20 20 21 20 19 18 17 16 16 16 16 16 16 16 17 17 17 18 18 18
21 20 19 19 19 19 20 21 19 19 18 18 19 19 19 19 19 20 20 20 20 20 20 20 20 20 21 21 21 21 20 20 19 18 18 17 17 16 16 16 15 16 16 17 17 18 18 18 18
20 20 19 20 20 18 19 20 20 19 19 18 19 19 19 19 20 19 19 20 20 20 20 21 21 20 21 21 21 21 21 21 19 18 19 18 17 17 16 16 15 16 16 17 18 18 18 18 18
20 20 20 20 21 21 20 20 19 19 19 19 19 19 19 20 20 20 20 20 21 20 21 22 21 21 21 21 21 21 21 22 20 19 19 18 17 17 16 16 16 16 16 17 17 17 18 18 18
20 21 21 21 22 22 20 20 19 19 20 20 20 21 20 20 21 21 20 21 21 21 22 23 22 21 20 20 21 21 21 21 21 20 19 18 18 17 18 17 17 17 17 17 18 18 19 19 19
22 23 22 22 22 22 21 20 20 20 20 20 21 21 21 22 22 22 22 22 22 22 22 23 23 22 22 22 21 21 21 21 21 20 19 19 18 18 18 18 18 18 18 18 18 18 19 18 18
Wind_Direction
280 287 289 289 303 307 289 291 292 304 314 321 322 323 326 336 339 325 318 325 321 315 310 301 300 297 295 297 299 309 311 294 298 284 244 227 233 221 211 208 203 219 227 232 230 231 232 231 237
272 279 283 286 295 287 286 287 285 291 305 313 318 320 323 334 330 327 316 315 314 308 302 293 290 290 291 291 295 302 308 304 302 284 269 258 246 229 232 229 232 248 240 224 226 226 228 238 250
266 273 281 283 276 270 279 285 287 287 292 303 311 314 314 321 322 316 311 307 310 307 296 288 283 284 282 282 287 290 292 292 294 288 281 271 265 259 260 241 245 254 240 233 240 236 231 237 250
266 271 275 280 276 274 278 283 288 288 289 294 300 304 303 310 314 313 312 309 302 295 291 284 277 277 273 276 279 280 279 281 282 286 286 280 272 267 267 252 253 254 252 256 258 257 257 255 256
263 267 272 273 275 275 275 277 286 287 286 288 290 294 298 302 306 310 309 305 303 294 288 283 277 269 268 267 273 269 265 273 275 276 279 276 275 274 271 264 257 255 254 270 281 281 279 288 279
259 264 264 266 272 274 273 273 278 283 282 281 283 287 293 297 299 305 307 303 296 292 288 282 277 275 268 266 267 264 260 262 269 275 273 271 273 269 266 266 266 263 261 264 271 289 288 296 282
254 257 257 262 267 271 270 271 276 278 278 278 280 282 286 288 295 298 304 297 294 295 293 285 279 278 272 264 262 260 256 253 261 273 275 267 266 259 260 263 269 271 266 263 265 277 288 290 278
252 255 257 260 263 266 266 267 270 271 274 274 276 278 282 284 291 297 301 294 290 294 293 292 287 282 276 269 262 257 253 253 258 263 264 261 258 255 257 259 263 267 271 267 269 277 287 283 274
251 250 252 255 259 261 262 262 265 267 269 271 273 275 282 285 293 297 296 294 293 292 289 291 288 283 275 268 264 255 252 253 255 259 255 251 251 253 256 253 258 261 268 267 268 268 270 272 266
248 246 248 254 258 258 260 260 261 263 265 268 271 274 279 287 296 295 294 293 293 294 289 289 287 283 276 271 264 256 252 250 252 257 252 247 248 255 257 260 267 271 267 261 262 263 265 264 269
248 246 247 252 257 257 258 259 260 262 263 265 269 273 280 284 288 291 290 290 293 292 285 283 286 284 276 269 262 254 254 252 254 252 250 248 250 255 258 261 264 268 266 261 263 262 263 265 271
248 249 250 251 256 257 257 258 258 261 261 263 267 270 273 276 282 283 284 284 286 285 284 286 285 281 276 268 262 255 250 250 254 253 252 250 251 252 255 253 258 263 266 264 266 265 263 265 268
249 252 252 254 259 258 258 259 260 260 261 265 268 269 270 272 277 278 282 281 281 282 283 284 284 279 277 270 263 260 254 253 251 255 254 252 251 252 254 253 259 261 266 267 263 259 261 263 265
252 254 256 258 261 258 257 259 261 261 261 264 267 270 269 271 271 273 278 282 280 278 281 284 286 280 276 272 267 262 260 257 254 255 256 254 254 255 259 259 255 261 266 267 261 258 260 263 265
254 256 258 260 261 261 261 260 261 263 262 262 266 268 270 273 270 271 275 277 278 277 282 286 284 280 279 275 273 269 264 259 257 258 258 258 258 261 262 260 256 256 260 264 260 262 263 264 268
254 258 260 262 261 261 260 258 260 262 261 263 266 267 268 269 267 269 271 272 276 277 282 285 283 281 279 277 276 273 268 263 263 261 260 261 261 263 264 262 260 257 256 259 262 263 264 266 269
257 258 260 262 262 262 259 256 258 261 261 261 263 265 264 266 266 268 269 268 271 276 281 283 282 282 278 277 278 275 270 267 265 265 264 264 262 262 265 264 263 262 260 260 259 263 269 269 270
255 256 259 262 264 262 260 258 259 262 263 262 261 262 263 265 267 266 266 268 272 275 278 278 279 279 276 276 279 277 272 273 265 265 266 264 264 266 266 265 264 264 263 262 264 268 273 272 271
253 256 260 262 263 263 261 260 261 261 262 261 260 260 263 266 269 266 267 269 272 275 277 275 278 278 277 276 278 278 273 272 266 264 265 264 267 266 263 265 265 266 266 265 267 270 274 273 273
254 255 258 261 261 262 262 261 262 261 259 258 260 261 262 266 268 267 268 270 272 275 277 278 279 278 276 275 276 277 274 272 271 267 266 271 270 267 262 263 263 265 265 265 268 272 274 274 275
255 254 255 257 259 261 263 264 262 260 258 257 259 262 264 266 264 265 266 268 270 274 277 278 277 277 276 273 273 276 274 272 272 270 268 272 270 266 267 265 263 263 263 264 269 270 272 273 273
253 252 253 254 256 259 262 263 263 259 257 258 259 260 262 262 262 264 267 268 270 273 275 276 275 275 275 273 273 273 274 271 270 271 270 270 270 268 264 265 266 266 266 267 270 271 273 273 272
251 251 252 254 256 256 260 261 262 261 257 257 259 259 258 261 261 264 267 269 270 272 274 273 273 272 272 272 272 271 271 271 271 272 272 272 271 267 262 266 267 266 268 267 269 270 273 273 272
248 250 252 253 256 257 258 259 259 259 257 257 258 257 258 259 261 265 266 268 270 271 273 272 272 271 271 272 273 273 270 269 271 272 269 267 269 267 267 269 268 269 270 268 270 270 271 272 273
246 247 250 252 254 256 258 258 258 258 257 256 257 257 258 259 262 264 265 268 271 270 270 272 271 269 270 270 271 271 271 269 269 269 265 265 269 270 269 269 269 271 271 270 269 270 270 270 272
247 246 245 248 253 258 260 260 263 261 261 259 258 258 259 259 261 263 265 267 270 269 267 270 271 270 271 270 270 271 270 268 267 266 265 266 269 270 270 269 269 269 270 269 268 269 271 270 269
248 244 242 248 252 255 259 264 264 261 259 260 261 261 260 261 262 262 265 265 268 266 266 269 269 270 272 271 270 271 271 268 268 267 265 266 267 268 270 269 269 268 269 269 267 268 270 269 268
246 245 247 245 249 254 259 263 265 262 258 257 258 257 257 261 263 263 264 266 266 267 266 267 266 268 271 271 272 273 272 267 265 267 267 266 267 268 270 270 270 269 269 268 266 268 269 269 268
245 247 251 250 250 255 259 261 262 260 260 258 257 255 256 258 261 262 265 267 266 266 267 267 265 266 268 270 272 270 268 268 267 266 264 264 266 268 269 269 271 272 272 272 268 269 270 270 270
247 248 250 249 253 255 258 259 259 260 259 259 258 256 257 259 262 264 265 265 267 266 266 267 265 265 267 268 270 272 270 266 265 264 262 263 266 268 268 269 270 270 272 274 272 272 274 271 271
Height
5899 5899 5899 5900 5901 5902 5902 5901 5900 5899 5898 5897 5896 5896 5895 5895 5895 5896 5893 5891 5890 5889 5888 5888 5887 5887 5886 5886 5885 5885 5884 5884 5884 5883 5883 5883 5883 5883 5882 5882 5882 5882 5882 5882 5882 5882 5883 5883 5883
5897 5898 5899 5899 5901 5902 5900 5899 5898 5897 5896 5895 5895 5894 5893 5893 5892 5892 5890 5889 5889 5888 5887 5887 5886 5886 5885 5885 5884 5884 5883 5883 5883 5883 5883 5882 5882 5882 5882 5882 5881 5881 5881 5881 5881 5881 5882 5882 5882
5896 5896 5898 5898 5899 5900 5898 5897 5896 5895 5895 5894 5893 5893 5892 5892 5891 5890 5889 5888 5887 5886 5886 5885 5885 5884 5884 5884 5883 5882 5882 5882 5881 5881 5881 5881 5881 5881 5880 5881 5880 5880 5880 5880 5880 5880 5881 5881 5881
5894 5895 5896 5898 5897 5897 5896 5895 5894 5893 5893 5892 5892 5891 5891 5890 5889 5888 5888 5887 5886 5885 5884 5884 5883 5883 5883 5882 5882 5881 5880 5880 5880 5880 5880 5880 5879 5879 5879 5879 5879 5879 5879 5879 5879 5879 5879 5879 5879
5892 5893 5895 5895 5895 5894 5894 5893 5892 5892 5891 5891 5891 5890 5889 5888 5887 5887 5886 5885 5884 5883 5883 5882 5882 5881 5881 5881 5880 5879 5879 5879 5878 5878 5878 5878 5878 5878 5878 5878 5878 5878 5878 5878 5878 5878 5878 5878 5878
5890 5891 5893 5893 5893 5892 5892 5891 5890 5890 5890 5889 5889 5888 5887 5887 5886 5885 5884 5883 5883 5882 5881 5880 5880 5879 5879 5879 5878 5878 5877 5877 5877 5877 5877 5876 5877 5877 5877 5876 5876 5876 5876 5877 5877 5877 5876 5876 5876
5889 5889 5890 5890 5890 5890 5890 5889 5888 5889 5888 5888 5887 5887 5886 5885 5884 5883 5882 5881 5881 5880 5879 5878 5878 5878 5877 5877 5877 5876 5876 5876 5875 5875 5875 5875 5875 5875 5875 5875 5875 5875 5875 5875 5875 5875 5875 5874 5875
5885 5887 5887 5887 5887 5887 5887 5886 5886 5887 5886 5886 5885 5885 5884 5883 5882 5881 5881 5880 5879 5878 5878 5877 5876 5876 5875 5875 5875 5875 5874 5874 5874 5874 5873 5873 5873 5873 5874 5874 5874 5874 5874 5874 5874 5874 5873 5873 5873
5881 5884 5885 5885 5884 5885 5884 5884 5884 5884 5884 5884 5883 5883 5883 5881 5880 5879 5878 5878 5877 5876 5876 5875 5875 5874 5873 5873 5873 5872 5872 5872 5872 5872 5872 5871 5871 5871 5872 5872 5872 5873 5873 5873 5873 5873 5872 5872 5872
5878 5880 5882 5881 5881 5881 5881 5881 5881 5882 5882 5882 5881 5881 5880 5879 5879 5878 5877 5876 5875 5874 5874 5873 5873 5872 5871 5871 5870 5870 5870 5870 5870 5870 5870 5869 5869 5870 5870 5870 5871 5871 5871 5871 5871 5871 5870 5870 5870
5875 5877 5877 5878 5878 5878 5878 5878 5878 5879 5879 5879 5879 5878 5878 5877 5877 5876 5875 5874 5873 5872 5872 5871 5870 5869 5869 5868 5868 5868 5867 5867 5867 5867 5868 5868 5868 5868 5868 5869 5869 5869 5869 5869 5869 5869 5868 5868 5868
5872 5873 5873 5874 5874 5875 5875 5875 5875 5876 5876 5876 5876 5876 5876 5875 5874 5874 5873 5872 5871 5871 5870 5869 5868 5867 5867 5866 5866 5866 5865 5865 5865 5865 5865 5865 5866 5866 5866 5866 5866 5867 5867 5867 5866 5866 5866 5866 5866
5868 5869 5870 5870 5871 5871 5871 5872 5873 5873 5873 5873 5873 5873 5873 5872 5872 5872 5871 5870 5869 5869 5867 5867 5866 5865 5864 5864 5864 5863 5863 5863 5862 5863 5863 5863 5863 5863 5863 5863 5864 5864 5864 5864 5863 5863 5863 5864 5864
5865 5866 5866 5867 5867 5868 5868 5869 5869 5870 5869 5869 5870 5870 5870 5869 5869 5869 5869 5868 5867 5866 5865 5864 5864 5863 5862 5862 5861 5861 5861 5860 5860 5861 5860 5860 5861 5861 5861 5860 5860 5861 5861 5861 5860 5860 5861 5861 5861
5861 5863 5863 5864 5864 5865 5865 5865 5866 5866 5866 5866 5866 5866 5866 5866 5866 5866 5866 5866 5865 5864 5863 5862 5861 5861 5860 5859 5859 5858 5858 5858 5858 5858 5858 5858 5858 5858 5857 5857 5857 5857 5858 5857 5858 5858 5858 5858 5858
5858 5859 5860 5861 5861 5861 5863 5863 5862 5861 5862 5862 5863 5863 5863 5863 5863 5863 5863 5862 5862 5862 5861 5860 5859 5858 5858 5857 5857 5856 5855 5855 5855 5855 5855 5855 5855 5854 5854 5854 5854 5854 5854 5854 5855 5855 5854 5854 5855
5854 5856 5857 5857 5856 5856 5858 5859 5859 5858 5858 5859 5859 5859 5859 5860 5860 5860 5859 5859 5859 5859 5858 5858 5857 5856 5855 5855 5854 5853 5853 5852 5852 5852 5852 5852 5852 5851 5851 5852 5851 5851 5851 5852 5852 5852 5851 5851 5851
5851 5852 5852 5853 5852 5852 5853 5854 5854 5854 5854 5854 5855 5855 5856 5856 5856 5856 5856 5856 5856 5856 5856 5855 5854 5853 5853 5852 5851 5850 5850 5849 5849 5849 5849 5849 5849 5848 5848 5848 5848 5848 5848 5849 5849 5849 5848 5848 5847
5846 5847 5848 5848 5848 5848 5848 5849 5850 5850 5850 5850 5851 5851 5852 5852 5852 5852 5853 5853 5853 5852 5852 5852 5851 5850 5849 5849 5848 5847 5847 5846 5845 5845 5845 5846 5846 5845 5845 5845 5845 5845 5845 5845 5845 5845 5844 5844 5843
5840 5841 5843 5844 5843 5843 5844 5845 5846 5845 5845 5846 5847 5847 5848 5848 5848 5849 5849 5849 5849 5849 5848 5848 5847 5847 5846 5845 5845 5844 5843 5842 5842 5842 5842 5843 5842 5842 5841 5842 5842 5842 5841 5841 5841 5841 5840 5840 5839
5835 5836 5837 5838 5839 5838 5839 5840 5841 5841 5840 5841 5842 5843 5844 5844 5844 5845 5845 5845 5845 5845 5845 5844 5843 5843 5842 5842 5841 5840 5839 5839 5839 5839 5839 5838 5838 5838 5838 5837 5837 5838 5838 5838 5837 5837 5836 5836 5835
5829 5831 5832 5833 5834 5835 5835 5836 5836 5836 5836 5836 5837 5838 5839 5840 5840 5841 5841 5841 5841 5841 5840 5840 5839 5839 5838 5838 5838 5837 5836 5836 5836 5835 5835 5834 5834 5834 5834 5834 5833 5833 5833 5833 5833 5833 5833 5832 5831
5825 5826 5827 5827 5828 5830 5830 5831 5833 5831 5831 5832 5833 5833 5835 5835 5836 5836 5836 5836 5836 5836 5836 5835 5835 5834 5834 5834 5834 5833 5833 5832 5832 5831 5830 5830 5830 5830 5830 5830 5830 5830 5830 5829 5829 5829 5828 5828 5828
5819 5820 5821 5822 5823 5824 5826 5827 5827 5826 5826 5827 5828 5828 5829 5830 5831 5831 5832 5832 5831 5831 5831 5831 5831 5830 5830 5830 5830 5829 5828 5828 5827 5826 5826 5826 5826 5826 5826 5825 5825 5825 5825 5825 5825 5825 5824 5824 5823
5813 5816 5817 5818 5818 5820 5820 5821 5822 5822 5821 5822 5823 5824 5824 5825 5826 5827 5827 5827 5827 5826 5826 5826 5826 5826 5826 5825 5825 5825 5824 5823 5823 5822 5822 5822 5822 5822 5822 5821 5821 5821 5821 5820 5820 5820 5820 5819 5819
5807 5810 5813 5814 5816 5817 5815 5815 5817 5816 5817 5817 5818 5819 5819 5820 5821 5821 5821 5822 5822 5822 5822 5822 5821 5821 5821 5821 5820 5820 5819 5818 5818 5818 5818 5818 5817 5817 5817 5817 5817 5817 5816 5816 5816 5816 5815 5815 5814
5801 5803 5807 5808 5810 5811 5812 5811 5811 5811 5812 5813 5813 5814 5814 5815 5816 5816 5816 5817 5817 5817 5817 5817 5816 5816 5816 5815 5815 5814 5814 5814 5813 5813 5813 5813 5813 5813 5813 5813 5812 5812 5812 5812 5811 5811 5811 5810 5809
5797 5799 5800 5802 5804 5805 5807 5807 5807 5806 5807 5808 5808 5809 5809 5810 5810 5811 5811 5812 5812 5812 5812 5811 5811 5811 5811 5810 5809 5809 5809 5809 5809 5809 5809 5809 5809 5809 5809 5809 5808 5808 5808 5807 5807 5806 5806 5805 5805
5791 5793 5795 5797 5799 5800 5802 5804 5802 5801 5801 5802 5803 5803 5804 5804 5805 5806 5806 5806 5806 5806 5806 5806 5806 5806 5806 5805 5805 5804 5804 5803 5804 5804 5804 5804 5804 5804 5804 5804 5804 5803 5803 5802 5802 5801 5801 5800 5800
5785 5787 5789 5792 5793 5794 5795 5799 5796 5796 5796 5797 5797 5798 5798 5799 5799 5800 5800 5800 5800 5800 5800 5800 5800 5800 5800 5800 5799 5799 5798 5798 5798 5799 5799 5799 5800 5800 5799 5799 5799 5798 5798 5797 5797 5796 5795 5795 5794